Terug naar catalogus

STARLINK-3339

ActiefCommunicatieVLEO
NORAD 50820·PAYLOAD·🇺🇸 United States

Gelanceerd Jan 6, 2022 vanaf Cape Canaveral Space Force Station

Loading…

Volgende Passages (komende 24 uur)

TLE

VersSource: CelesTrak SupGP

Epoch: Sep 14, 2026, 21:31 UTC

1 50820C 22001T   26257.89701389  .00015975  00000+0  51370-3 0  2579
2 50820  53.1591  29.9843 0001143  78.4686 101.9216 15.31694061    11

Volg STARLINK-3339 in realtime met AllMySat

Download on the App Store